Flag for Lebanon Weather past 2 weeks in Sidon, Lebanon

Now
73 °F

Passing clouds.


Feels Like: 77 °F
Forecast: 68 / 82 °F
Wind: 3 mph from West

Location: Beirut Airport


UV Index: 5 (Moderate)

Visibility: N/A


Pressure: 29.98 "Hg

Humidity: 50%

Dew point: 54 °F

Location of SidonLocation

Historic Weather in Sidon

°F

Sidon temperature yesterday

Maximum temperature yesterday: 72 °F (at 12:00 PM)
Minimum temperature yesterday: 63 °F (at 6:00 AM)
Average temperature yesterday: 68 °F

Past Weeks' High & Low Weather Summary

 TemperatureHumidityPressure
High84 °F (Apr 6, 2:00 PM)88% (Apr 13, 12:00 AM)30.18 "Hg (Apr 13, 12:00 AM)
Low57 °F (Apr 5, 5:00 AM)18% (Apr 6, 2:00 PM)29.80 "Hg (Apr 17, 6:00 AM)
Average67 °F64%30.01 "Hg
* Reported Apr 3 6:00 PM — Apr 18 6:00 PM, Sidon, Weather by CustomWeather, © 2014

Note: Actual official high and low records may vary slightly from our data, if they occured in-between our weather recording intervals... More about our weather records

Advertising

Historic Weather Conditions — Data for Previous 24 hours

 ConditionsComfort  
Time TempWeatherWind HumidityBarometerVisibility
6:00 PM
Apr 18
73 °FPassing clouds.3 mph50%29.98 "HgN/A
5:00 PM73 °FPassing clouds.3 mph53%29.98 "HgN/A
4:00 PM72 °FPassing clouds.5 mph65%30.01 "HgN/A
3:00 PM72 °FPassing clouds.7 mph61%30.01 "HgN/A
2:00 PM72 °FPassing clouds.8 mph69%30.01 "HgN/A
1:00 PM72 °FPassing clouds.8 mph61%30.01 "HgN/A
12:00 PM70 °FPassing clouds.12 mph64%29.98 "HgN/A
11:00 AM70 °FPassing clouds.13 mph64%30.01 "HgN/A
10:00 AM70 °FPassing clouds.12 mph64%29.98 "HgN/A
9:00 AM68 °FPassing clouds.12 mph60%29.98 "HgN/A
8:00 AM68 °FPassing clouds.6 mph60%29.95 "HgN/A
7:00 AM63 °FPassing clouds.3 mph64%29.95 "HgN/A
6:00 AM63 °FClear.3 mph68%29.95 "Hg10 mi
5:00 AM64 °FPassing clouds.3 mph68%29.92 "Hg5 mi
4:00 AM63 °FPassing clouds.7 mph73%29.92 "Hg5 mi
3:00 AM64 °FPassing clouds.7 mph78%29.92 "Hg5 mi
2:00 AM64 °FPassing clouds.12 mph83%29.92 "Hg5 mi
1:00 AM66 °FPassing clouds.9 mph78%29.92 "Hg5 mi
12:00 AM66 °FPassing clouds.9 mph78%29.92 "Hg4 mi
11:00 PM
Apr 17
66 °FPassing clouds.10 mph83%29.92 "Hg4 mi
10:00 PM66 °FPassing clouds.9 mph83%29.89 "Hg4 mi
9:00 PM66 °FPassing clouds.12 mph88%29.89 "Hg4 mi
8:00 PM66 °FScattered clouds.9 mph88%29.89 "Hg4 mi
7:00 PM68 °FScattered clouds.10 mph83%29.89 "Hg4 mi
Weather by CustomWeather, © 2014

See weather overview